San Jose, Costa Rica

2:55 PM CST on December 10, 2016 (GMT -0600)
Juan Santamaria International

Weather History for MROC - January, 2000

Change the Weather History Date:

Sunday, January 30, 2000

  Actual Average Record
Temperature  
Mean Temperature 71 °F -  
Max Temperature 80 °F 81 °F 86 °F (1998)
Min Temperature 62 °F 64 °F 60 °F (2008)
Cooling Degree Days 6    
Growing Degree Days 21 (Base 50)    
Moisture  
Dew Point 59 °F    
Average Humidity 66    
Maximum Humidity 83    
Minimum Humidity 50    
Precipitation  
Precipitation 0.00 in 0.01 in - ()
Sea Level Pressure  
Sea Level Pressure 30.02 in    
Wind  
Wind Speed 14 mph ()    
Max Wind Speed 24 mph    
Max Gust Speed 25 mph    
Visibility 6.2 miles    
Events      
Averages and records for this station are not official NWS values.
T = Trace of Precipitation, MM = Missing Value Source: Averaged Metar Reports

Daily Weather History Graph

Daily Weather History Graph

Search for Another Location

Airport or City:

Trip Planner

Search our weather history database for the weather conditions in past years. The results will help you decide how hot, cold, wet, or windy it might be!

Date:

Astronomy

Jan. 30, 2000 Rise Set
Actual Time 5:59 AM CST 5:40 PM CST
Civil Twilight 5:37 AM CST 6:02 PM CST
Nautical Twilight 5:12 AM CST 6:28 PM CST
Astronomical Twilight 4:46 AM CST 6:53 PM CST
Moon 1:14 AM CST (1/30) 1:11 PM CST (1/30)
Length of Visible Light 12h 25m
Length of Day
11h 41m
Waning Crescent, 28% of the Moon is Illuminated
Jan 30
Waning Crescent
Feb 5
New
Feb 12
First Quarter
Feb 19
Full
Feb 26
Last Quarter

Hourly Weather History & Observations

Time (CST) Temp. Heat Index Dew Point Humidity Pressure Visibility Wind Dir Wind Speed Gust Speed Precip Events Conditions
1:00 AM 64.4 °F - 57.2 °F 77% - - East 6.9 mph - N/A   Clear
3:00 AM 62.6 °F - 57.2 °F 82% 30.00 in - East 9.2 mph - N/A   Clear
4:00 AM 64.4 °F - 59.0 °F 83% 30.00 in - East 13.8 mph - N/A   Clear
5:00 AM 64.4 °F - 59.0 °F 83% 30.00 in 6.2 mi ESE 19.6 mph - N/A   Partly Cloudy
6:00 AM 64.4 °F - 59.0 °F 83% 30.02 in 6.2 mi ESE 23.0 mph - N/A   Partly Cloudy
7:00 AM 68.0 °F - 59.0 °F 73% 30.04 in 6.2 mi ESE 17.3 mph - N/A   Partly Cloudy
8:00 AM 73.4 °F - 60.8 °F 65% 30.06 in 6.2 mi ESE 16.1 mph - N/A   Partly Cloudy
9:00 AM 77.0 °F - 59.0 °F 54% 30.07 in 6.2 mi ESE 23.0 mph - N/A   Partly Cloudy
10:00 AM 78.8 °F - 60.8 °F 54% 30.07 in 6.2 mi ESE 13.8 mph 25.3 mph N/A   Partly Cloudy
11:00 AM 80.6 °F 81.8 °F 62.6 °F 54% 30.05 in 6.2 mi East 19.6 mph - N/A   Partly Cloudy
12:00 PM 77.0 °F - 59.0 °F 54% 30.03 in 6.2 mi SE 20.7 mph - N/A   Scattered Clouds
1:00 PM 77.0 °F - 59.0 °F 54% 30.01 in 6.2 mi ESE 24.2 mph - N/A   Scattered Clouds
2:00 PM 78.8 °F - 59.0 °F 51% 29.91 in 6.2 mi ESE 18.4 mph - N/A   Partly Cloudy
3:00 PM 77.0 °F - 57.2 °F 50% 29.98 in 6.2 mi ESE 16.1 mph - N/A   Partly Cloudy
4:00 PM 77.0 °F - 57.2 °F 50% 29.97 in 6.2 mi East 17.3 mph - N/A   Partly Cloudy
5:00 PM 71.6 °F - 57.2 °F 60% 29.98 in 6.2 mi East 20.7 mph - N/A   Partly Cloudy
6:00 PM 68.0 °F - 57.2 °F 68% 30.00 in - ESE 23.0 mph - N/A   Clear
7:00 PM 68.0 °F - 57.2 °F 68% 30.02 in - ESE 23.0 mph - N/A   Clear
8:00 PM 68.0 °F - 59.0 °F 73% 30.04 in - East 16.1 mph - N/A   Clear
9:00 PM 68.0 °F - 57.2 °F 68% 30.04 in - ESE 21.9 mph - N/A   Clear
10:00 PM 66.2 °F - 59.0 °F 78% 30.05 in - ESE 17.3 mph - N/A   Clear